Flag for U.S.A. Weather past 2 weeks in Greenville, South Carolina, U.S.A.

Now
46 °F

Clear.


Feels Like: 41 °F
Forecast: 39 / 55 °F
Wind: 10 mph from West

Location: Greenville Downtown Airport

Current Time: Dec 25, 2014 at 5:52:57 AM

Latest Report: Dec 25, 2014 at 4:53 AM


Visibility: 10 mi

Pressure: 29.90 "Hg

Humidity: 71%

Dew point: 37 °F

Location of GreenvilleLocation

Historic Weather in Greenville — Graph

°F

Greenville temperature yesterday

Maximum temperature yesterday: 53 °F (at 8:01 PM)
Minimum temperature yesterday: 45 °F (at 12:53 AM)
Average temperature yesterday: 50 °F

Past Weeks' High & Low Weather Summary

 TemperatureHumidityPressure
High69 °F (Dec 14, 2:53 PM)97% (Dec 23, 11:53 PM)30.31 "Hg (Dec 23, 11:53 PM)
Low31 °F (Dec 11, 5:53 AM)13% (Dec 13, 1:53 PM)29.67 "Hg (Dec 24, 4:53 PM)
Average47 °F60%30.07 "Hg
* Reported Dec 10 4:53 AM — Dec 25 4:53 AM, Greenville, Weather by CustomWeather, © 2014

Note: Actual official high and low records may vary slightly from our data, if they occured in-between our weather recording intervals... More about our weather records

Advertising

Greenville weather history for previous 24 hours

 ConditionsComfort  
Time TempWeatherWind HumidityBarometerVisibility
4:53 AM
Dec 25
46 °FClear.10 mph71%29.90 "Hg10 mi
3:53 AM46 °FClear.12 mph71%29.87 "Hg10 mi
2:53 AM47 °FClear.12 mph69%29.86 "Hg10 mi
1:53 AM48 °FClear.13 mph71%29.81 "Hg10 mi
12:53 AM48 °FClear.10 mph80%29.79 "Hg10 mi
11:53 PM
Dec 24
48 °FClear.14 mph86%29.77 "Hg10 mi
10:53 PM50 °FPassing clouds.15 mph86%29.74 "Hg10 mi
9:53 PM52 °FPassing clouds.18 mph89%29.74 "Hg10 mi
8:53 PM53 °FPassing clouds.10 mph96%29.71 "Hg10 mi
8:01 PM53 °FLow clouds.9 mph96%29.71 "Hg8 mi
6:53 PM52 °FFog.3 mph97%29.69 "Hg0 mi
5:53 PM52 °FFog.No wind97%29.68 "Hg0 mi
4:53 PM52 °FFog.No wind97%29.67 "Hg0 mi
3:53 PM52 °FFog.5 mph93%29.67 "Hg1 mi
3:00 PM52 °FLight rain. Fog.3 mph93%29.68 "Hg3 mi
1:56 PM51 °FLight rain. Fog.6 mph92%29.69 "Hg1 mi
12:53 PM51 °FLow clouds.5 mph92%29.71 "Hg10 mi
11:53 AM51 °FLight rain. Low clouds.8 mph89%29.73 "Hg10 mi
11:03 AM50 °FLight rain. Low clouds.10 mph93%29.75 "Hg10 mi
10:53 AM50 °FLight rain. Overcast.8 mph93%29.77 "Hg10 mi
10:00 AM49 °FRain. Fog.8 mph93%29.81 "Hg6 mi
8:53 AM48 °FRain. Fog.8 mph93%29.78 "Hg5 mi
7:53 AM48 °FLight rain. Fog.9 mph93%29.77 "Hg4 mi
6:53 AM48 °FRain. Overcast.13 mph93%29.77 "Hg7 mi
5:53 AM48 °FLight rain. Mostly cloudy.8 mph93%29.79 "Hg10 mi
Weather by CustomWeather, © 2014

See weather overviewHow to use our weather pages